Regional Weather Roundup
Issued by NWS

Home | Current Version | Previous Version | Text Only | Print | Product List | Glossary Off
Versions: 1 2 3 4 5 6 7 8 9 10 11 12 13 14 15 16 17 18 19 20 21 22 23 24 25 26 27 28 29 30 31 32 33 34 35 36 37 38 39 40 41 42 43 44 45 46 47 48 49 50

000
ASUS43 KLMK 060602
RWRKY
KENTUCKY REGIONAL WEATHER ROUNDUP
NATIONAL WEATHER SERVICE LOUISVILLE KY
200 AM EDT MON JUL 06 2015

NOTE "FAIR" INDICATES FEW OR NO CLOUDS BELOW 12,000 FEET
WITH NO SIGNIFICANT WEATHER AND/OR OBSTRUCTIONS TO VISIBILITY.

KYZ001>023-026-027-061>063-070>075-060700-
WESTERN AND SOUTH CENTRAL KENTUCKY

CITY           SKY/WX    TMP DP  RH WIND       PRES   REMARKS
PADUCAH        PTCLDY    71  68  90 CALM      30.02F FOG
HENDERSON      CLOUDY    72  68  88 S3        30.02F
OWENSBORO      CLEAR     72  69  90 SE7       30.04F
HOPKINSVILLE   PTCLDY    74  70  88 SW2       30.04F
BOWLING GREEN  CLEAR     72  69  90 CALM      30.05F FOG
GLASGOW        NOT AVBL
$$

KYZ024-025-028>034-038-045-046-053-060700-
NORTH CENTRAL KENTUCKY

CITY           SKY/WX    TMP DP  RH WIND       PRES   REMARKS
LOUISVILLE/SDF PTCLDY    71  65  81 SE3       30.05F
LOUISVILLE/LOU CLEAR     67  64  90 CALM      30.06F FOG
FORT KNOX      CLEAR     67  65  93 NE2       30.04F
$$

KYZ035>037-039>044-047>052-055>060-089>105-060700-
NORTHEAST KENTUCKY

CITY           SKY/WX    TMP DP  RH WIND       PRES   REMARKS
LEXINGTON      PTCLDY    66  64  93 CALM      30.07F FOG
COVINGTON      MOCLDY    66  62  87 W5        30.06F
FRANKFORT      PTCLDY    66  63  90 CALM      30.06F
$$

KYZ054-064>069-076>088-106>120-060700-
SOUTHEAST KENTUCKY

CITY           SKY/WX    TMP DP  RH WIND       PRES   REMARKS
JACKSON        RAIN      68  67  96 VRB3      30.08S VSB 3/4
LONDON         FOG       68  64  87 CALM      30.10F VSB 1/4
SOMERSET       NOT AVBL
MIDDLESBORO    NOT AVBL
MONTICELLO     FOG       67  67 100 CALM      30.11F VSB 1/4
$$




USA.gov is the U.S. government's official web portal to all federal, state and local government web resources and services.